Tracking 30970 objects as of 3-Jul-2025
HD Live streaming from Space Station
objects crossing your sky now

NOAA 16 DEB

Track NOAA 16 DEB now!
10-day predictions


NORAD ID: 41421
Int'l Code: 2000-055LA
Perigee: 680.6 km
Apogee: 730.7 km
Inclination: 99.0 °
Period: 98.7 minutes
Semi major axis: 7076 km
RCS: Unknown
Launch date: September 21, 2000
Source: United States (US)
Launch site: AIR FORCE WESTERN TEST RANGE (AFWTR)

Note: This is SATELLITE DEBRIS
Your satellite tracking list
SJ-6H
Track 1 satellite(s)




NASA's NSSDC Master Catalog

Two Line Element Set (TLE):
1 41421U 00055LA  25183.33422665  .00007436  00000-0  16029-2 0  9992
2 41421  98.9672  18.8756 0035389  52.3879 308.0521 14.58343023487575
Source of the keplerian elements: AFSPC